Imperial, CA

1:17 AM PDT on April 21, 2018 (GMT -0700)
Imperial County

Weather History for KIPL - July, 2014

Change the Weather History Date:

Sunday, July 6, 2014

  Actual Average Record
Temperature  
Mean Temperature 96 °F -  
Max Temperature 109 °F 105 °F 115 °F (1966)
Min Temperature 84 °F 76 °F 64 °F (2000)
Cooling Degree Days 32    
Growing Degree Days 46 (Base 50)    
Moisture  
Dew Point 59 °F    
Average Humidity 30    
Maximum Humidity 51    
Minimum Humidity 18    
Precipitation  
Precipitation 0.00 in - - ()
Sea Level Pressure  
Sea Level Pressure 29.80 in    
Wind  
Wind Speed 5 mph (SW)    
Max Wind Speed 15 mph    
Max Gust Speed 22 mph    
Visibility 10 miles    
Events      
Averages and records for this station are not official NWS values.
T = Trace of Precipitation, MM = Missing Value Source: NWS Daily Summary

Daily Weather History Graph

Daily Weather History Graph

Search for Another Location

Airport or City:

Astronomy

Jul. 06, 2014 Rise Set
Actual Time 5:40 AM PDT 7:53 PM PDT
Civil Twilight 5:11 AM PDT 8:22 PM PDT
Nautical Twilight 4:37 AM PDT 8:56 PM PDT
Astronomical Twilight 3:59 AM PDT 9:34 PM PDT
Moon 2:09 PM PDT (7/6) 12:48 AM PDT (7/6)
Length of Visible Light 15h 10m
Length of Day
14h 13m
Waxing Gibbous, 63% of the Moon is Illuminated
Jul 6
Waxing Gibbous
Jul 12
Full
Jul 18
Last Quarter
Jul 26
New
Aug 3
First Quarter

Hourly Weather History & Observations

Time (PDT) Temp. Heat Index Dew Point Humidity Pressure Visibility Wind Dir Wind Speed Gust Speed Precip Events Conditions
12:53 AM 89.1 °F 91.3 °F 66.0 °F 46% 29.86 in 10.0 mi ESE 4.6 mph - N/A   Clear
1:53 AM 88.0 °F 90.3 °F 66.0 °F 48% 29.86 in 10.0 mi Calm Calm - N/A   Clear
2:53 AM 87.1 °F 87.0 °F 61.0 °F 41% 29.85 in 10.0 mi West 4.6 mph - N/A   Clear
3:53 AM 84.9 °F 86.6 °F 64.9 °F 51% 29.86 in 10.0 mi SE 4.6 mph - N/A   Clear
4:53 AM 86.0 °F 84.7 °F 55.9 °F 36% 29.86 in 10.0 mi SSW 3.5 mph - N/A   Clear
5:53 AM 84.9 °F 83.9 °F 57.0 °F 38% 29.87 in 10.0 mi SSE 4.6 mph - N/A   Clear
6:53 AM 88.0 °F 87.9 °F 61.0 °F 40% 29.88 in 10.0 mi South 6.9 mph - N/A   Clear
7:53 AM 91.0 °F 90.9 °F 61.0 °F 36% 29.88 in 10.0 mi SW 6.9 mph - N/A   Clear
8:53 AM 93.0 °F 93.0 °F 61.0 °F 34% 29.89 in 10.0 mi WSW 6.9 mph - N/A   Clear
9:53 AM 98.1 °F 98.1 °F 60.1 °F 28% 29.88 in 10.0 mi NNW 5.8 mph - N/A   Clear
10:53 AM 99.0 °F 99.5 °F 61.0 °F 28% 29.88 in 10.0 mi Calm Calm - N/A   Clear
11:53 AM 102.0 °F 102.7 °F 60.1 °F 25% 29.85 in 10.0 mi WNW 6.9 mph - N/A   Clear
12:53 PM 105.1 °F 105.7 °F 59.0 °F 22% 29.83 in 10.0 mi Variable 4.6 mph - N/A   Clear
1:53 PM 105.1 °F 105.7 °F 59.0 °F 22% 29.79 in 10.0 mi SW 8.1 mph - N/A   Clear
2:53 PM 106.0 °F 105.1 °F 55.9 °F 19% 29.76 in 10.0 mi South 5.8 mph - N/A   Clear
3:53 PM 107.1 °F 108.1 °F 59.0 °F 21% 29.73 in 10.0 mi ENE 5.8 mph - N/A   Clear
4:53 PM 109.0 °F 108.9 °F 57.0 °F 18% 29.70 in 10.0 mi Variable 6.9 mph - N/A   Clear
5:53 PM 108.0 °F 107.3 °F 55.9 °F 18% 29.70 in 10.0 mi East 5.8 mph - N/A   Clear
6:53 PM 107.1 °F 106.7 °F 57.0 °F 19% 29.70 in 10.0 mi ESE 4.6 mph - N/A   Clear
7:53 PM 100.0 °F 98.3 °F 55.0 °F 22% 29.71 in 10.0 mi WSW 15.0 mph 21.9 mph N/A   Clear
8:53 PM 96.1 °F 93.5 °F 53.1 °F 23% 29.73 in 10.0 mi WSW 12.7 mph - N/A   Clear
9:53 PM 93.0 °F 90.6 °F 53.1 °F 26% 29.75 in 10.0 mi West 11.5 mph - N/A   Clear
10:53 PM 89.1 °F 87.1 °F 55.0 °F 31% 29.74 in 10.0 mi West 8.1 mph - N/A   Clear
11:53 PM 89.1 °F 86.9 °F 54.0 °F 30% 29.74 in 10.0 mi West 11.5 mph - N/A   Clear